Regional Weather Roundup
Issued by NWS

Home | Current Version | Previous Version | Text Only | Print | Product List | Glossary On
Versions: 1 2 3 4 5 6 7 8 9 10 11 12 13 14 15 16 17 18 19 20 21 22 23 24 25 26 27 28 29 30 31 32 33 34 35 36 37 38 39 40 41 42 43 44 45 46 47 48 49
000
ASUS45 KBOI 032310
RWRID

IDAHO REGIONAL WEATHER ROUNDUP
NATIONAL WEATHER SERVICE BOISE ID
500 PM MDT MON AUG 03 2015

NOTE: "FAIR" INDICATES FEW OR NO CLOUDS BELOW 12000 FEET
WITH NO SIGNIFICANT WEATHER AND/OR OBSTRUCTIONS TO VISIBILITY

IDZ012-014-040000-
SOUTHWEST IDAHO


CITY           SKY/WX    TMP DP  RH WIND       PRES   REMARKS
BOISE          CLOUDY    90  45  21 CALM      29.88F
CALDWELL       CLOUDY    91  46  21 NE3       29.87F
MOUNTAIN HOME  CLOUDY    92  46  20 VRB3      29.87F
$$

IDZ016-017-040000-
SOUTHCENTRAL IDAHO


CITY           SKY/WX    TMP DP  RH WIND       PRES   REMARKS
BURLEY         CLOUDY    78  51  38 SW7       30.00F
JEROME         CLOUDY    82  47  29 E12       29.99F
TWIN FALLS     CLOUDY    86  44  23 E12       29.97F
$$

IDZ019>023-040000-
SOUTHEAST IDAHO


CITY           SKY/WX    TMP DP  RH WIND       PRES   REMARKS
IDAHO FALLS    CLOUDY    73  50  44 VRB3      30.06F
POCATELLO      MOSUNNY   74  52  46 S15G25    30.03F
REXBURG        CLOUDY    72  51  47 S8        30.04F
$$

IDZ006-010-011-018-031-032-040000-
CENTRAL IDAHO MOUNTAINS


CITY           SKY/WX    TMP DP  RH WIND       PRES   REMARKS
MCCALL         CLOUDY    77  38  24 SE17G24   30.04S
HAILEY         CLOUDY    75  45  33 SW14      30.07R
STANLEY          N/A     73  38  27 N7G17     30.14S
SALMON         CLOUDY    86  41  20 W9G25     29.84R
CHALLIS        CLOUDY    87  35  15 W17       29.96F
$$

IDZ002-004-006-007-026-040000-
NORTHERN IDAHO


CITY           SKY/WX    TMP DP  RH WIND       PRES   REMARKS
LEWISTON       CLOUDY    94  37  13 NW15G26   29.78F
LOWELL           N/A     96  39  13 CALM      29.76S HX  91
COEUR D`ALENE  CLOUDY    88  41  19 W9        29.81S
MULLAN PASS    PTSUNNY   74  35  24 NW8G17    30.04F
$$


USA.gov is the U.S. government's official web portal to all federal, state and local government web resources and services.